QPF
0.00 0.00 0.00 0.00 0.00 0.00 0.00 0.00 0.00 0.00 0.00 0.00 0.01 0.01 0.01 0.01 0.01 0.02 0.02 0.02 0.02 0.01 0.01 0.01 0.01 0.01 0.01 0.01 0.01 0.02 0.02 0.03 0.04 0.03 0.03 0.03 0.05 0.06 0.07 0.08 0.10 0.10 0.08
0.00 0.00 0.00 0.00 0.00 0.00 0.00 0.00 0.00 0.00 0.00 0.00 0.01 0.01 0.01 0.01 0.01 0.01 0.01 0.01 0.02 0.01 0.01 0.01 0.01 0.01 0.02 0.02 0.02 0.03 0.03 0.03 0.03 0.03 0.03 0.04 0.04 0.05 0.06 0.08 0.09 0.10 0.09
0.00 0.00 0.00 0.00 0.00 0.00 0.00 0.00 0.00 0.00 0.00 0.01 0.01 0.01 0.01 0.01 0.01 0.01 0.01 0.01 0.01 0.01 0.02 0.02 0.01 0.01 0.02 0.02 0.02 0.02 0.02 0.02 0.02 0.02 0.03 0.05 0.04 0.04 0.04 0.05 0.07 0.08 0.08
0.00 0.00 0.00 0.00 0.00 0.00 0.00 0.00 0.00 0.00 0.01 0.01 0.01 0.01 0.01 0.01 0.01 0.02 0.02 0.02 0.02 0.02 0.02 0.02 0.01 0.01 0.02 0.02 0.02 0.02 0.02 0.02 0.02 0.02 0.03 0.04 0.04 0.04 0.04 0.05 0.07 0.09 0.10
0.00 0.00 0.00 0.00 0.00 0.00 0.00 0.00 0.00 0.01 0.01 0.01 0.01 0.01 0.01 0.01 0.01 0.02 0.02 0.02 0.02 0.02 0.02 0.01 0.01 0.02 0.02 0.03 0.03 0.02 0.02 0.02 0.02 0.03 0.03 0.04 0.04 0.03 0.04 0.04 0.06 0.07 0.11
0.00 0.00 0.00 0.00 0.00 0.00 0.00 0.00 0.00 0.01 0.01 0.02 0.03 0.03 0.02 0.02 0.02 0.03 0.02 0.02 0.02 0.02 0.02 0.01 0.01 0.02 0.02 0.02 0.03 0.03 0.03 0.04 0.03 0.03 0.03 0.03 0.04 0.03 0.02 0.04 0.04 0.04 0.06
0.00 0.00 0.00 0.00 0.00 0.00 0.00 0.00 0.01 0.02 0.02 0.03 0.04 0.04 0.03 0.03 0.03 0.03 0.03 0.02 0.02 0.02 0.02 0.02 0.02 0.02 0.02 0.02 0.02 0.03 0.04 0.04 0.03 0.03 0.03 0.03 0.04 0.04 0.03 0.03 0.04 0.03 0.04
0.00 0.00 0.00 0.00 0.00 0.01 0.01 0.02 0.03 0.03 0.04 0.04 0.04 0.05 0.04 0.03 0.03 0.04 0.04 0.03 0.03 0.02 0.02 0.02 0.02 0.02 0.02 0.02 0.02 0.02 0.02 0.02 0.02 0.02 0.03 0.03 0.04 0.04 0.04 0.04 0.04 0.03 0.03
0.00 0.00 0.01 0.01 0.01 0.02 0.02 0.02 0.03 0.03 0.05 0.05 0.04 0.03 0.03 0.03 0.03 0.04 0.04 0.04 0.03 0.03 0.03 0.02 0.02 0.02 0.03 0.03 0.03 0.02 0.02 0.02 0.02 0.03 0.03 0.03 0.03 0.04 0.04 0.03 0.03 0.02 0.02
0.01 0.01 0.01 0.01 0.01 0.01 0.01 0.01 0.01 0.02 0.02 0.02 0.01 0.02 0.02 0.02 0.03 0.04 0.04 0.03 0.03 0.04 0.04 0.03 0.03 0.03 0.04 0.04 0.03 0.03 0.02 0.02 0.02 0.02 0.02 0.03 0.03 0.03 0.04 0.03 0.03 0.02 0.02
0.01 0.01 0.01 0.00 0.00 0.00 0.00 0.01 0.01 0.00 0.00 0.01 0.01 0.02 0.02 0.03 0.04 0.05 0.05 0.04 0.04 0.03 0.03 0.03 0.03 0.03 0.04 0.04 0.03 0.02 0.02 0.02 0.02 0.02 0.02 0.02 0.02 0.02 0.02 0.02 0.02 0.02 0.02
0.01 0.01 0.00 0.00 0.00 0.00 0.00 0.00 0.00 0.01 0.00 0.00 0.01 0.01 0.02 0.04 0.05 0.05 0.06 0.05 0.04 0.04 0.04 0.03 0.03 0.04 0.04 0.03 0.02 0.02 0.02 0.02 0.01 0.01 0.01 0.01 0.01 0.01 0.01 0.01 0.01 0.01 0.02
0.01 0.00 0.00 0.00 0.00 0.00 0.00 0.00 0.00 0.00 0.01 0.01 0.01 0.02 0.03 0.04 0.05 0.07 0.06 0.05 0.04 0.04 0.04 0.04 0.04 0.04 0.03 0.03 0.02 0.02 0.01 0.01 0.01 0.01 0.01 0.01 0.01 0.01 0.01 0.01 0.01 0.01 0.01
0.01 0.01 0.01 0.01 0.01 0.01 0.01 0.01 0.01 0.01 0.02 0.02 0.02 0.02 0.02 0.02 0.03 0.06 0.06 0.05 0.04 0.03 0.03 0.04 0.04 0.03 0.02 0.02 0.02 0.01 0.01 0.01 0.01 0.01 0.01 0.01 0.01 0.01 0.01 0.01 0.01 0.01 0.01
0.01 0.01 0.01 0.01 0.01 0.01 0.01 0.01 0.01 0.01 0.03 0.03 0.03 0.03 0.02 0.03 0.03 0.05 0.06 0.05 0.03 0.03 0.03 0.03 0.03 0.03 0.02 0.02 0.01 0.01 0.01 0.01 0.01 0.01 0.01 0.01 0.01 0.01 0.01 0.01 0.01 0.01 0.01
0.02 0.01 0.01 0.01 0.01 0.01 0.01 0.01 0.02 0.02 0.02 0.03 0.03 0.04 0.04 0.04 0.03 0.04 0.05 0.06 0.05 0.04 0.04 0.03 0.02 0.02 0.03 0.02 0.02 0.02 0.02 0.02 0.01 0.01 0.01 0.01 0.01 0.01 0.01 0.01 0.01 0.01 0.01
0.02 0.02 0.02 0.01 0.01 0.01 0.01 0.01 0.01 0.01 0.02 0.02 0.03 0.04 0.04 0.04 0.04 0.04 0.04 0.05 0.05 0.04 0.04 0.03 0.03 0.03 0.03 0.02 0.02 0.02 0.02 0.02 0.01 0.01 0.01 0.01 0.01 0.00 0.00 0.01 0.01 0.01 0.01
0.02 0.03 0.02 0.02 0.02 0.01 0.01 0.01 0.01 0.02 0.02 0.02 0.03 0.03 0.03 0.03 0.03 0.03 0.04 0.03 0.04 0.04 0.03 0.03 0.03 0.02 0.02 0.02 0.02 0.02 0.01 0.01 0.01 0.01 0.01 0.00 0.00 0.00 0.00 0.00 0.01 0.01 0.01
0.02 0.03 0.03 0.03 0.03 0.02 0.02 0.02 0.02 0.02 0.02 0.03 0.03 0.03 0.03 0.02 0.02 0.03 0.03 0.02 0.02 0.03 0.03 0.02 0.02 0.02 0.02 0.02 0.02 0.02 0.01 0.01 0.01 0.01 0.01 0.00 0.01 0.01 0.01 0.01 0.01 0.01 0.01
0.02 0.02 0.03 0.04 0.03 0.03 0.03 0.02 0.02 0.02 0.02 0.03 0.03 0.03 0.03 0.03 0.02 0.02 0.02 0.02 0.01 0.02 0.02 0.02 0.02 0.02 0.02 0.02 0.02 0.01 0.01 0.01 0.01 0.01 0.01 0.00 0.01 0.01 0.01 0.01 0.01 0.01 0.01
0.02 0.02 0.03 0.04 0.03 0.03 0.03 0.03 0.03 0.03 0.03 0.02 0.02 0.02 0.02 0.02 0.02 0.02 0.02 0.01 0.01 0.02 0.02 0.02 0.02 0.01 0.01 0.01 0.01 0.01 0.01 0.01 0.01 0.01 0.00 0.00 0.00 0.01 0.01 0.01 0.01 0.01 0.01
0.02 0.02 0.02 0.03 0.03 0.02 0.02 0.02 0.02 0.03 0.03 0.02 0.01 0.01 0.01 0.01 0.01 0.01 0.01 0.01 0.01 0.01 0.01 0.02 0.02 0.01 0.01 0.01 0.01 0.01 0.01 0.01 0.01 0.00 0.00 0.00 0.01 0.01 0.01 0.01 0.01 0.01 0.01
0.03 0.03 0.03 0.02 0.02 0.02 0.02 0.02 0.02 0.03 0.02 0.02 0.01 0.01 0.01 0.01 0.01 0.01 0.01 0.01 0.01 0.01 0.01 0.01 0.01 0.01 0.01 0.01 0.01 0.01 0.01 0.01 0.01 0.01 0.01 0.01 0.01 0.01 0.01 0.01 0.01 0.01 0.01
0.04 0.03 0.03 0.02 0.02 0.02 0.02 0.02 0.02 0.02 0.02 0.01 0.01 0.01 0.01 0.01 0.01 0.01 0.01 0.01 0.01 0.01 0.01 0.01 0.01 0.02 0.01 0.01 0.01 0.01 0.01 0.01 0.01 0.01 0.01 0.01 0.01 0.01 0.01 0.02 0.01 0.01 0.01
0.03 0.03 0.02 0.02 0.02 0.02 0.01 0.01 0.01 0.02 0.02 0.01 0.01 0.01 0.01 0.01 0.01 0.01 0.01 0.01 0.01 0.01 0.01 0.02 0.02 0.02 0.01 0.01 0.01 0.01 0.01 0.01 0.01 0.01 0.01 0.01 0.01 0.01 0.01 0.02 0.01 0.01 0.02
0.03 0.02 0.02 0.02 0.02 0.02 0.01 0.01 0.01 0.01 0.02 0.01 0.01 0.02 0.02 0.01 0.01 0.01 0.01 0.01 0.01 0.01 0.01 0.02 0.02 0.02 0.01 0.01 0.01 0.01 0.01 0.01 0.01 0.01 0.01 0.02 0.01 0.01 0.01 0.02 0.01 0.02 0.02
MSLP
1010.61 1011.62 1012.57 1013.45 1014.25 1014.96 1015.61 1016.22 1016.80 1017.36 1017.90 1018.41 1018.87 1019.27 1019.59 1019.82 1019.98 1020.07 1020.11 1020.13 1020.14 1020.14 1020.13 1020.08 1019.96 1019.74 1019.39 1018.88 1018.21 1017.38 1016.39 1015.27 1014.02 1012.68 1011.27 1009.79 1008.29 1006.76 1005.25 1003.76 1002.31 1000.90 999.55
1009.95 1010.95 1011.90 1012.80 1013.63 1014.38 1015.09 1015.75 1016.38 1016.98 1017.56 1018.11 1018.59 1018.99 1019.31 1019.53 1019.66 1019.72 1019.73 1019.71 1019.68 1019.65 1019.61 1019.55 1019.44 1019.24 1018.93 1018.48 1017.86 1017.08 1016.14 1015.04 1013.80 1012.45 1011.01 1009.51 1007.97 1006.44 1004.93 1003.48 1002.09 1000.76 999.50
1009.40 1010.38 1011.33 1012.24 1013.10 1013.89 1014.63 1015.33 1016.00 1016.65 1017.25 1017.81 1018.30 1018.71 1019.01 1019.22 1019.33 1019.36 1019.34 1019.28 1019.22 1019.15 1019.08 1019.00 1018.88 1018.69 1018.40 1017.98 1017.41 1016.68 1015.78 1014.73 1013.52 1012.20 1010.78 1009.30 1007.79 1006.29 1004.83 1003.44 1002.13 1000.90 999.73
1008.95 1009.92 1010.87 1011.79 1012.66 1013.48 1014.26 1014.99 1015.69 1016.35 1016.97 1017.54 1018.03 1018.42 1018.71 1018.90 1018.99 1019.00 1018.95 1018.86 1018.76 1018.66 1018.56 1018.45 1018.30 1018.10 1017.81 1017.40 1016.86 1016.17 1015.32 1014.31 1013.17 1011.91 1010.55 1009.13 1007.70 1006.28 1004.90 1003.60 1002.39 1001.25 1000.19
1008.60 1009.57 1010.52 1011.45 1012.33 1013.17 1013.97 1014.72 1015.44 1016.11 1016.74 1017.30 1017.77 1018.15 1018.43 1018.60 1018.67 1018.66 1018.58 1018.47 1018.34 1018.20 1018.06 1017.90 1017.71 1017.48 1017.17 1016.75 1016.22 1015.55 1014.74 1013.80 1012.73 1011.55 1010.29 1008.98 1007.66 1006.35 1005.09 1003.90 1002.79 1001.75 1000.78
1008.37 1009.33 1010.28 1011.21 1012.10 1012.95 1013.76 1014.53 1015.25 1015.93 1016.55 1017.10 1017.56 1017.92 1018.17 1018.32 1018.38 1018.35 1018.26 1018.12 1017.96 1017.78 1017.59 1017.38 1017.13 1016.84 1016.49 1016.04 1015.49 1014.84 1014.07 1013.19 1012.20 1011.13 1009.99 1008.82 1007.62 1006.45 1005.32 1004.25 1003.25 1002.32 1001.44
1008.24 1009.20 1010.15 1011.07 1011.97 1012.83 1013.64 1014.42 1015.14 1015.81 1016.42 1016.95 1017.39 1017.73 1017.96 1018.09 1018.13 1018.08 1017.97 1017.81 1017.62 1017.40 1017.16 1016.88 1016.58 1016.22 1015.80 1015.30 1014.73 1014.07 1013.33 1012.50 1011.60 1010.65 1009.64 1008.61 1007.56 1006.54 1005.54 1004.60 1003.71 1002.87 1002.08
1008.22 1009.17 1010.12 1011.04 1011.94 1012.79 1013.61 1014.38 1015.10 1015.76 1016.35 1016.86 1017.28 1017.59 1017.80 1017.91 1017.92 1017.86 1017.73 1017.55 1017.33 1017.06 1016.77 1016.43 1016.05 1015.62 1015.13 1014.58 1013.96 1013.29 1012.57 1011.79 1010.98 1010.12 1009.25 1008.35 1007.46 1006.58 1005.72 1004.90 1004.12 1003.38 1002.67
1008.33 1009.27 1010.20 1011.12 1012.00 1012.85 1013.66 1014.42 1015.13 1015.78 1016.35 1016.83 1017.21 1017.49 1017.67 1017.75 1017.74 1017.66 1017.51 1017.31 1017.05 1016.75 1016.41 1016.01 1015.56 1015.06 1014.50 1013.89 1013.24 1012.55 1011.84 1011.11 1010.36 1009.60 1008.84 1008.08 1007.33 1006.58 1005.85 1005.14 1004.46 1003.82 1003.19
1008.57 1009.49 1010.41 1011.30 1012.17 1013.00 1013.80 1014.55 1015.24 1015.86 1016.40 1016.85 1017.19 1017.43 1017.57 1017.62 1017.58 1017.47 1017.30 1017.07 1016.79 1016.45 1016.07 1015.62 1015.12 1014.56 1013.94 1013.29 1012.60 1011.90 1011.19 1010.49 1009.81 1009.13 1008.48 1007.83 1007.19 1006.56 1005.95 1005.35 1004.76 1004.20 1003.66
1008.97 1009.86 1010.74 1011.60 1012.45 1013.26 1014.04 1014.76 1015.42 1016.01 1016.51 1016.91 1017.21 1017.40 1017.49 1017.49 1017.41 1017.27 1017.07 1016.82 1016.51 1016.15 1015.74 1015.26 1014.72 1014.12 1013.47 1012.78 1012.07 1011.36 1010.67 1010.00 1009.37 1008.76 1008.19 1007.64 1007.10 1006.57 1006.05 1005.54 1005.04 1004.56 1004.11
1009.53 1010.37 1011.21 1012.04 1012.84 1013.63 1014.37 1015.06 1015.69 1016.24 1016.68 1017.03 1017.26 1017.39 1017.42 1017.37 1017.24 1017.06 1016.83 1016.55 1016.22 1015.84 1015.41 1014.91 1014.36 1013.74 1013.07 1012.38 1011.67 1010.97 1010.29 1009.65 1009.06 1008.52 1008.01 1007.54 1007.08 1006.64 1006.20 1005.76 1005.34 1004.93 1004.55
1010.24 1011.03 1011.81 1012.60 1013.36 1014.10 1014.81 1015.46 1016.04 1016.53 1016.91 1017.19 1017.35 1017.40 1017.36 1017.24 1017.06 1016.83 1016.56 1016.26 1015.91 1015.52 1015.09 1014.59 1014.03 1013.42 1012.77 1012.08 1011.39 1010.71 1010.06 1009.46 1008.91 1008.42 1007.97 1007.56 1007.16 1006.78 1006.41 1006.04 1005.68 1005.33 1005.01
1011.08 1011.81 1012.54 1013.27 1013.99 1014.68 1015.34 1015.94 1016.46 1016.88 1017.19 1017.39 1017.46 1017.43 1017.31 1017.12 1016.88 1016.60 1016.29 1015.96 1015.60 1015.21 1014.77 1014.29 1013.75 1013.16 1012.53 1011.88 1011.22 1010.58 1009.97 1009.41 1008.90 1008.45 1008.05 1007.69 1007.35 1007.02 1006.69 1006.38 1006.07 1005.77 1005.50
1012.02 1012.69 1013.36 1014.04 1014.70 1015.35 1015.94 1016.48 1016.93 1017.27 1017.50 1017.60 1017.59 1017.48 1017.27 1017.01 1016.70 1016.36 1016.01 1015.65 1015.28 1014.89 1014.47 1014.01 1013.50 1012.95 1012.37 1011.76 1011.14 1010.54 1009.98 1009.46 1009.00 1008.60 1008.23 1007.91 1007.61 1007.33 1007.05 1006.77 1006.50 1006.24 1006.01
1013.02 1013.62 1014.24 1014.86 1015.47 1016.05 1016.59 1017.05 1017.42 1017.67 1017.81 1017.82 1017.72 1017.51 1017.22 1016.89 1016.51 1016.13 1015.75 1015.37 1014.99 1014.60 1014.20 1013.76 1013.29 1012.79 1012.25 1011.69 1011.13 1010.58 1010.07 1009.60 1009.18 1008.81 1008.49 1008.20 1007.94 1007.69 1007.45 1007.21 1006.97 1006.75 1006.54
1014.03 1014.57 1015.13 1015.70 1016.25 1016.76 1017.22 1017.60 1017.88 1018.04 1018.08 1018.00 1017.80 1017.51 1017.15 1016.75 1016.33 1015.90 1015.49 1015.10 1014.71 1014.34 1013.95 1013.54 1013.11 1012.65 1012.16 1011.66 1011.15 1010.66 1010.19 1009.77 1009.39 1009.06 1008.78 1008.53 1008.30 1008.08 1007.87 1007.67 1007.46 1007.27 1007.09
1015.01 1015.50 1016.00 1016.51 1016.99 1017.43 1017.80 1018.09 1018.27 1018.34 1018.28 1018.11 1017.83 1017.47 1017.05 1016.59 1016.13 1015.68 1015.25 1014.85 1014.47 1014.10 1013.73 1013.36 1012.96 1012.54 1012.10 1011.65 1011.19 1010.75 1010.33 1009.95 1009.61 1009.32 1009.07 1008.86 1008.66 1008.48 1008.30 1008.13 1007.96 1007.80 1007.64
1015.94 1016.37 1016.81 1017.25 1017.65 1018.00 1018.28 1018.47 1018.56 1018.53 1018.38 1018.12 1017.78 1017.36 1016.89 1016.40 1015.92 1015.46 1015.02 1014.62 1014.25 1013.90 1013.55 1013.20 1012.84 1012.46 1012.06 1011.65 1011.24 1010.85 1010.47 1010.14 1009.84 1009.58 1009.37 1009.18 1009.02 1008.87 1008.73 1008.59 1008.46 1008.33 1008.21
1016.79 1017.17 1017.54 1017.90 1018.21 1018.47 1018.65 1018.74 1018.72 1018.59 1018.37 1018.04 1017.64 1017.18 1016.69 1016.19 1015.70 1015.24 1014.82 1014.43 1014.07 1013.74 1013.41 1013.09 1012.75 1012.41 1012.04 1011.67 1011.31 1010.95 1010.62 1010.33 1010.07 1009.85 1009.66 1009.51 1009.38 1009.26 1009.16 1009.06 1008.96 1008.87 1008.78
1017.55 1017.87 1018.17 1018.44 1018.66 1018.81 1018.89 1018.87 1018.76 1018.55 1018.25 1017.87 1017.44 1016.96 1016.46 1015.97 1015.50 1015.06 1014.65 1014.29 1013.95 1013.63 1013.33 1013.02 1012.71 1012.39 1012.06 1011.73 1011.40 1011.08 1010.79 1010.53 1010.31 1010.12 1009.97 1009.85 1009.75 1009.67 1009.60 1009.53 1009.48 1009.42 1009.37
1018.23 1018.47 1018.69 1018.87 1018.99 1019.04 1019.01 1018.90 1018.70 1018.42 1018.06 1017.65 1017.20 1016.72 1016.25 1015.78 1015.34 1014.92 1014.55 1014.21 1013.89 1013.59 1013.31 1013.02 1012.73 1012.43 1012.13 1011.82 1011.53 1011.25 1011.00 1010.78 1010.59 1010.44 1010.31 1010.22 1010.16 1010.10 1010.06 1010.03 1010.01 1009.98 1009.97
1018.80 1018.97 1019.10 1019.19 1019.21 1019.16 1019.04 1018.84 1018.57 1018.24 1017.85 1017.43 1016.98 1016.53 1016.08 1015.65 1015.24 1014.87 1014.53 1014.21 1013.92 1013.64 1013.37 1013.09 1012.82 1012.54 1012.26 1011.98 1011.72 1011.48 1011.26 1011.07 1010.92 1010.80 1010.71 1010.65 1010.60 1010.58 1010.56 1010.56 1010.56 1010.57 1010.58
1019.27 1019.37 1019.42 1019.41 1019.34 1019.21 1019.00 1018.74 1018.42 1018.06 1017.66 1017.24 1016.82 1016.40 1016.00 1015.61 1015.26 1014.92 1014.62 1014.33 1014.05 1013.79 1013.52 1013.26 1012.99 1012.73 1012.47 1012.22 1011.98 1011.77 1011.59 1011.44 1011.32 1011.23 1011.16 1011.12 1011.10 1011.10 1011.10 1011.12 1011.14 1011.17 1011.21
1019.65 1019.67 1019.64 1019.56 1019.41 1019.20 1018.94 1018.63 1018.28 1017.91 1017.52 1017.13 1016.75 1016.38 1016.03 1015.70 1015.39 1015.10 1014.82 1014.56 1014.30 1014.04 1013.78 1013.52 1013.26 1013.01 1012.77 1012.54 1012.33 1012.15 1012.00 1011.87 1011.78 1011.72 1011.68 1011.66 1011.65 1011.66 1011.68 1011.71 1011.75 1011.80 1011.85
1019.93 1019.89 1019.79 1019.64 1019.43 1019.17 1018.87 1018.54 1018.19 1017.83 1017.47 1017.12 1016.79 1016.47 1016.18 1015.90 1015.64 1015.38 1015.14 1014.89 1014.65 1014.40 1014.14 1013.89 1013.63 1013.39 1013.16 1012.95 1012.76 1012.60 1012.48 1012.38 1012.31 1012.27 1012.25 1012.24 1012.26 1012.28 1012.31 1012.35 1012.40 1012.46 1012.52
Thickness
5567 5566 5566 5565 5565 5564 5563 5561 5560 5558 5556 5555 5554 5552 5551 5549 5547 5545 5543 5541 5539 5536 5534 5531 5528 5525 5522 5519 5516 5513 5510 5507 5504 5503 5501 5500 5499 5499 5500 5501 5501 5501 5502
5558 5557 5557 5556 5556 5555 5554 5553 5551 5549 5548 5546 5545 5544 5543 5541 5539 5538 5536 5534 5532 5530 5527 5524 5521 5518 5515 5512 5509 5506 5504 5501 5498 5495 5494 5493 5492 5492 5493 5494 5494 5493 5494
5549 5548 5548 5547 5547 5546 5546 5544 5543 5541 5539 5538 5537 5536 5535 5533 5532 5530 5529 5527 5525 5523 5520 5517 5514 5512 5509 5506 5503 5500 5497 5495 5492 5489 5487 5486 5486 5486 5486 5487 5486 5486 5486
5539 5539 5539 5539 5538 5538 5537 5536 5534 5533 5531 5530 5529 5528 5527 5526 5524 5523 5522 5520 5518 5516 5514 5511 5508 5506 5503 5500 5498 5494 5491 5489 5486 5483 5481 5480 5479 5479 5478 5479 5480 5479 5478
5530 5530 5531 5530 5530 5529 5529 5528 5526 5525 5524 5522 5521 5520 5519 5518 5517 5516 5514 5513 5510 5509 5507 5505 5503 5500 5498 5495 5492 5489 5486 5483 5480 5477 5475 5474 5473 5472 5471 5471 5471 5471 5471
5521 5522 5523 5522 5522 5522 5521 5520 5519 5518 5517 5515 5513 5512 5511 5511 5510 5509 5508 5505 5503 5501 5500 5498 5496 5494 5492 5490 5487 5484 5481 5478 5475 5472 5470 5468 5467 5466 5465 5464 5463 5464 5463
5513 5514 5515 5515 5515 5515 5514 5513 5513 5511 5510 5508 5506 5505 5503 5503 5503 5502 5501 5498 5495 5493 5492 5490 5489 5487 5485 5482 5479 5477 5474 5472 5470 5467 5465 5463 5462 5461 5459 5458 5456 5454 5452
5505 5506 5507 5507 5507 5508 5507 5507 5506 5505 5503 5501 5499 5498 5497 5497 5497 5496 5494 5491 5489 5487 5485 5483 5482 5480 5478 5476 5472 5469 5466 5464 5463 5461 5460 5459 5457 5456 5454 5452 5450 5448 5446
5496 5498 5499 5500 5501 5501 5500 5500 5499 5498 5497 5495 5493 5492 5491 5490 5490 5490 5488 5485 5482 5480 5478 5476 5475 5473 5472 5469 5466 5462 5459 5456 5455 5455 5454 5453 5452 5450 5449 5447 5444 5443 5441
5488 5490 5491 5493 5494 5494 5493 5492 5492 5491 5490 5489 5487 5485 5484 5483 5483 5483 5482 5479 5476 5473 5471 5469 5468 5467 5465 5462 5459 5456 5453 5450 5448 5448 5447 5446 5444 5443 5442 5439 5437 5435 5433
5480 5482 5484 5485 5486 5487 5486 5485 5484 5484 5482 5481 5480 5478 5477 5477 5476 5476 5475 5473 5470 5467 5464 5462 5460 5460 5458 5456 5454 5451 5448 5445 5443 5441 5440 5438 5437 5435 5434 5432 5429 5427 5425
5472 5474 5475 5476 5478 5479 5478 5477 5476 5476 5474 5472 5471 5470 5469 5469 5469 5469 5469 5467 5465 5461 5458 5456 5453 5452 5451 5449 5447 5444 5442 5440 5437 5435 5433 5431 5429 5428 5426 5425 5423 5421 5419
5463 5464 5466 5468 5469 5469 5469 5468 5468 5467 5466 5465 5464 5463 5462 5461 5462 5462 5461 5460 5458 5455 5452 5450 5448 5445 5443 5441 5439 5437 5435 5433 5431 5429 5427 5424 5423 5421 5420 5418 5417 5415 5413
5453 5454 5456 5458 5460 5460 5460 5460 5460 5459 5459 5458 5457 5456 5454 5454 5454 5454 5453 5452 5450 5448 5444 5442 5440 5438 5436 5433 5430 5428 5427 5426 5424 5422 5420 5418 5417 5415 5413 5412 5409 5407 5405
5443 5445 5447 5450 5451 5452 5452 5452 5452 5452 5452 5452 5451 5449 5448 5448 5448 5448 5446 5445 5443 5441 5437 5434 5431 5428 5426 5424 5422 5420 5419 5418 5417 5415 5413 5412 5410 5409 5406 5404 5401 5399 5396
5435 5437 5439 5441 5442 5443 5443 5443 5443 5444 5445 5445 5444 5443 5442 5442 5442 5441 5439 5437 5435 5434 5431 5427 5423 5420 5418 5416 5415 5413 5412 5411 5410 5409 5407 5405 5403 5402 5400 5397 5394 5391 5388
5426 5428 5430 5432 5434 5435 5435 5435 5434 5434 5435 5436 5435 5435 5434 5434 5433 5432 5431 5429 5426 5425 5422 5419 5416 5413 5411 5410 5409 5408 5406 5405 5403 5402 5400 5398 5397 5395 5392 5390 5387 5384 5382
5417 5420 5421 5423 5425 5426 5426 5426 5426 5425 5425 5424 5425 5426 5425 5425 5424 5424 5422 5420 5416 5414 5412 5410 5408 5407 5406 5404 5403 5402 5401 5399 5397 5395 5394 5392 5390 5388 5385 5383 5381 5378 5377
5409 5410 5412 5414 5415 5417 5417 5418 5417 5417 5416 5416 5416 5416 5416 5415 5415 5414 5413 5410 5408 5405 5404 5403 5402 5401 5400 5399 5398 5397 5395 5393 5391 5389 5387 5385 5383 5381 5379 5377 5375 5374 5372
5400 5402 5404 5405 5406 5407 5408 5408 5408 5408 5407 5407 5407 5406 5406 5405 5404 5403 5402 5401 5400 5398 5397 5396 5396 5396 5395 5394 5392 5391 5389 5388 5386 5384 5382 5379 5377 5374 5373 5370 5369 5367 5366
5392 5394 5395 5396 5397 5398 5398 5399 5399 5399 5398 5397 5397 5397 5398 5396 5395 5394 5394 5393 5393 5392 5391 5390 5390 5389 5389 5388 5387 5385 5384 5382 5380 5378 5376 5374 5371 5369 5366 5365 5363 5361 5361
5384 5385 5386 5388 5389 5389 5390 5390 5390 5390 5390 5389 5388 5387 5388 5387 5386 5386 5386 5386 5386 5385 5385 5384 5384 5384 5383 5382 5382 5380 5379 5377 5375 5373 5371 5368 5365 5363 5361 5359 5358 5356 5355
5376 5377 5379 5380 5381 5383 5382 5382 5382 5382 5381 5380 5379 5379 5379 5378 5378 5378 5378 5378 5379 5378 5378 5378 5378 5378 5377 5377 5376 5375 5374 5372 5370 5368 5366 5363 5360 5358 5356 5354 5353 5352 5351
5368 5370 5371 5372 5373 5374 5374 5374 5374 5374 5374 5373 5372 5371 5371 5371 5370 5371 5371 5371 5371 5371 5372 5372 5372 5372 5371 5371 5370 5369 5368 5367 5365 5363 5360 5358 5356 5354 5352 5350 5349 5348 5347
5361 5362 5363 5364 5365 5366 5366 5366 5366 5366 5366 5366 5365 5364 5364 5364 5364 5364 5364 5364 5364 5364 5365 5365 5365 5365 5365 5364 5364 5364 5362 5361 5359 5358 5356 5354 5352 5350 5348 5347 5345 5344 5343
5352 5353 5354 5355 5356 5357 5357 5358 5357 5357 5357 5358 5357 5357 5357 5357 5356 5356 5356 5357 5357 5357 5358 5358 5358 5358 5358 5358 5358 5357 5357 5356 5354 5353 5351 5349 5347 5346 5344 5343 5342 5341 5340